Regional Weather Roundup
Issued by NWS Cleveland, OH

Home | Current Version | Previous Version | Text Only | Print | Product List | Glossary Off
Versions: 1 2 3 4 5 6 7 8 9 10 11 12 13 14 15 16 17 18 19 20 21 22 23 24 25 26 27 28 29 30 31 32 33 34 35 36 37 38 39 40 41 42 43 44 45 46 47 48 49 50

000
ASUS41 KCLE 291602
RWRCLE
OHIO REGIONAL WEATHER ROUNDUP
NATIONAL WEATHER SERVICE CLEVELAND, OH
1100 AM EST THU JAN 29 2015

NOTE: "FAIR" INDICATES FEW OR NO CLOUDS BELOW 12,000 FEET WITH NO
SIGNIFICANT WEATHER AND/OR OBSTRUCTIONS TO VISIBILITY.

OHZ001>008-015>018-024>027-034-035-043-044-291700-
   NORTHWEST OHIO

CITY           SKY/WX    TMP DP  RH WIND       PRES   REMARKS
DEFIANCE       CLOUDY    38  30  73 SW9       29.75S
FINDLAY        CLOUDY    38  30  73 S18       29.76F
TOLEDO EXPRESS CLOUDY    37  29  72 S9        29.75F
TOLEDO EXEC    CLOUDY    38  29  70 S10       29.76F
LIMA           CLOUDY    40  30  67 S17G25    29.76F
$$

OHZ009>014-019>023-028>033-038-089-291700-
   NORTHEAST OHIO

CITY           SKY/WX    TMP DP  RH WIND       PRES   REMARKS
CLE-HOPKINS    DRIZZLE   35  26  69 S17       29.84F WCI  25
CLE-LAKEFRONT  CLOUDY    37  25  61 S25G35    29.80F
CUY CO. ARPT   DRIZZLE   37  27  65 S17G29    29.82F
LORAIN-ELYRIA  CLOUDY    35  28  75 S16       29.80F WCI  25
ASHTABULA      CLOUDY    32  12  43 S20G28    29.85S WCI  20
AKRON-CANTON   LGT RAIN  34  25  69 S25G32    29.84F WCI  21
WOOSTER        FRZ RAIN  32  26  78 S17G26    29.83F WCI  21
MANSFIELD      FRZ RAIN  34  30  85 S17       29.80F WCI  23
YOUNGSTOWN     FRZ RAIN  31  19  61 S15G21    29.86F WCI  20
$$

OHZ042-051>053-060>062-070>072-077>081-291700-
  SOUTHWEST OHIO

CITY           SKY/WX    TMP DP  RH WIND       PRES   REMARKS
CINC-COVINGTON PTSUNNY   48  35  60 SW18G28   29.84F
CINC-LUNKEN    MOSUNNY   48  36  63 S18G29    29.86F
HAMILTON       CLOUDY    48  36  63 SW10G18   29.84F
DAYTON         PTSUNNY   41  33  73 S16       29.80S
WRIGHT-PAT AFB PTSUNNY   40  33  75 S15       29.81F
DAYTON GENERAL PTSUNNY   41  34  76 S15       29.81F
WILMINGTON     PTSUNNY   43  33  68 SW17G28   29.82F
$$

OHZ036-037-039>041-045>050-054>059-063>069-073>076-082>088-291700-
  CENTRAL AND SOUTHEAST OHIO

CITY           SKY/WX    TMP DP  RH WIND       PRES   REMARKS
COLUMBUS       LGT RAIN  34  29  82 S13G18    29.85F WCI  25
OSU AIRPORT    CLOUDY    34  29  82 S12       29.83F WCI  25
BOLTON FIELD   MOSUNNY   34  30  86 S8        29.85F WCI  27
RICKENBACK AFB NOT AVBL
NEWARK         RAIN      35  29  78 SE6       29.86F
MARION         CLOUDY    35  29  78 S21G26    29.81F WCI  24
LANCASTER      MIX PCPN  36  30  79 S8        29.87F
ZANESVILLE     MIX PCPN  32  27  81 S9        29.90F WCI  24
NEW PHILLY     LGT RAIN  35  26  69 S10G18    29.91F WCI  27
$$



USA.gov is the U.S. government's official web portal to all federal, state and local government web resources and services.